Zurück zum Katalog

KUIPER-00317

AktivKommunikationLEO
NORAD 68600·PAYLOAD·🇺🇸 United States

Gestartet Apr 4, 2026 von Cape Canaveral Space Force Station

Loading…

Nächste Überflüge (nächste 24 Stunden)

TLE

AktuellSource: CelesTrak SupGP

Epoche: Sep 14, 2026, 22:47 UTC

1 68600C 26072AD  26257.94991898  .00004372  00000+0  57238-3 0  2576
2 68600  51.8965 138.7238 0000730  97.7089  30.3500 14.79917023    13

Verfolge KUIPER-00317 in Echtzeit mit AllMySat

Download on the App Store